TimeFJST,TemperatureF,Dew PointF,Humidity,Sea Level PressureIn,VisibilityMPH,Wind Direction,Wind SpeedMPH,Gust SpeedMPH,PrecipitationIn,Events,Conditions,WindDirDegrees,DateUTC
12:00 AM,77.0,75.2,94,29.83,6.2,Calm,Calm,-,N/A,Rain,Light Rain,0,2012-12-30 11:00:00
1:00 AM,76,75,95,29.83,12,Calm,Calm,,,Rain,Light Rain,,2012-12-30 12:00:00
1:00 AM,75.2,75.2,100,29.83,12.4,Calm,Calm,-,N/A,,Overcast,0,2012-12-30 12:00:00
2:00 AM,75.2,75.2,100,29.80,12.4,Calm,Calm,-,N/A,,Overcast,0,2012-12-30 13:00:00
3:00 AM,75.2,75.2,100,29.80,12.4,Calm,Calm,-,N/A,,Overcast,0,2012-12-30 14:00:00
4:00 AM,76,75,95,30.09,12,Calm,Calm,,,Rain,Light Rain Showers,,2012-12-30 15:00:00
4:00 AM,75.2,75.2,100,29.77,12.4,Calm,Calm,-,N/A,,Overcast,0,2012-12-30 15:00:00
5:00 AM,75.2,75.2,100,29.77,12.4,Calm,Calm,-,N/A,,Overcast,0,2012-12-30 16:00:00
6:00 AM,75.2,75.2,100,29.80,12.4,Calm,Calm,-,N/A,,Overcast,0,2012-12-30 17:00:00
7:00 AM,74,73,96,29.82,31,Calm,Calm,,,Rain,Light Rain Showers,,2012-12-30 18:00:00
7:00 AM,75.2,73.4,94,29.80,31.1,Calm,Calm,-,N/A,,Mostly Cloudy,0,2012-12-30 18:00:00
8:00 AM,75.2,75.2,100,29.80,31.1,Calm,Calm,-,N/A,,Mostly Cloudy,0,2012-12-30 19:00:00
9:00 AM,77.0,73.4,89,29.83,9.3,East,11.5,-,N/A,Rain,Light Rain Showers,80,2012-12-30 20:00:00
10:00 AM,78,75,89,29.83,31,Calm,Calm,,,Rain,Light Rain Showers,,2012-12-30 21:00:00
10:00 AM,78.8,75.2,89,29.83,31.1,Calm,Calm,-,N/A,,Mostly Cloudy,0,2012-12-30 21:00:00
11:00 AM,82.4,77.0,84,29.80,31.1,NE,6.9,-,N/A,,Mostly Cloudy,40,2012-12-30 22:00:00
12:00 PM,84.2,78.8,84,29.80,31.1,NNE,6.9,-,N/A,,Mostly Cloudy,20,2012-12-30 23:00:00
1:00 PM,81,79,90,29.83,31,NE,8.1,,,Rain,Light Rain Showers,50,2012-12-31 00:00:00
1:00 PM,80.6,78.8,94,29.80,31.1,NE,8.1,-,N/A,,Mostly Cloudy,50,2012-12-31 00:00:00
2:00 PM,86.0,78.8,79,29.80,31.1,NE,15.0,-,N/A,,Scattered Clouds,50,2012-12-31 01:00:00
3:00 PM,86.0,77.0,74,29.80,31.1,ENE,13.8,-,N/A,,Mostly Cloudy,60,2012-12-31 02:00:00
4:00 PM,87,76,64,29.79,31,ENE,13.8,,,,Partly Cloudy,60,2012-12-31 03:00:00
4:00 PM,87.8,77.0,70,29.77,31.1,ENE,13.8,-,N/A,,Mostly Cloudy,60,2012-12-31 03:00:00
5:00 PM,82.4,77.0,84,29.77,31.1,East,11.5,-,N/A,,Mostly Cloudy,80,2012-12-31 04:00:00
6:00 PM,82.4,77.0,84,29.77,31.1,East,8.1,-,N/A,,Mostly Cloudy,90,2012-12-31 05:00:00
7:00 PM,82,76,78,29.82,31,East,8.1,,,Rain,Light Rain Showers,80,2012-12-31 06:00:00
7:00 PM,82.4,77.0,84,29.80,31.1,East,8.1,-,N/A,,Mostly Cloudy,80,2012-12-31 06:00:00
8:00 PM,82.4,77.0,84,29.83,31.1,East,8.1,-,N/A,,Scattered Clouds,80,2012-12-31 07:00:00
9:00 PM,80.6,77.0,89,29.86,31.1,East,8.1,-,N/A,,Scattered Clouds,80,2012-12-31 08:00:00
10:00 PM,81,76,79,29.88,31,ENE,5.8,,,,Partly Cloudy,70,2012-12-31 09:00:00
10:00 PM,80.6,75.2,84,29.86,31.1,ENE,5.8,-,N/A,,Mostly Cloudy,70,2012-12-31 09:00:00
11:00 PM,80.6,75.2,84,29.89,24.9,ENE,5.8,-,N/A,,Mostly Cloudy,70,2012-12-31 10:00:00